Terug naar catalogus

STARLINK-30361

ActiefCommunicatieVLEO
NORAD 57743·PAYLOAD·🇺🇸 United States

Gelanceerd Sep 1, 2023 vanaf Cape Canaveral Space Force Station

Loading…

Volgende Passages (komende 24 uur)

TLE

VersSource: CelesTrak SupGP

Epoch: Sep 14, 2026, 20:38 UTC

1 57743C 23131M   26257.86020833  .00001527  00000+0  55291-4 0  2575
2 57743  42.9997 183.9537 0001329 261.8833 311.1078 15.27583357    18

Volg STARLINK-30361 in realtime met AllMySat

Download on the App Store